AirNav   Everest Fuels
 
 1053 users online  

KWLW Willows-Glenn County Airport
Willows, California, USA

GOING TO WILLOWS?


FAA INFORMATION EFFECTIVE 10 OCTOBER 2019

Location

FAA Identifier: WLW
Lat/Long: 39-30-56.7212N 122-13-02.1916W
39-30.945353N 122-13.036527W
39.5157559,-122.2172754
(estimated)
Elevation: 141.2 ft. / 43.0 m (surveyed)
Variation: 14E (2020)
From city: 1 mile W of WILLOWS, CA
Time zone: UTC -7 (UTC -8 during Standard Time)
Zip code: 95988

Airport Operations

Airport use: Open to the public
Activation date: 04/1940
Control tower: no
ARTCC: OAKLAND CENTER
FSS: RANCHO MURIETA FLIGHT SERVICE STATION
NOTAMs facility: RIU (NOTAM-D service available)
Attendance: 0730-1530
Wind indicator: lighted
Segmented circle: yes
Lights: ACTVT MIRL RY 16/34 & VASI RY 34 - CTAF.
Beacon: white-green (lighted land airport)
Operates sunset to sunrise.

Airport Communications

CTAF/UNICOM: 122.8
  • APCH/DEP SVC PRVDD BY OAKLAND ARTCC ON FREQS 132.2/350.3 (RED BLUFF RCAG).
  • MAXWELL RCO 110.0T 122.1R (RANCHO MURIETA RADIO)

Nearby radio navigation aids

VOR radial/distance  VOR name  Freq  Var
CICr210/23.7CHICO VOR/DME109.8016E
ILAr324/28.1WILLIAMS VORTAC114.4018E
RBLr161/35.0RED BLUFF VORTAC115.7018E
MYVr294/39.0MARYSVILLE VOR/DME110.8016E

Airport Services

Fuel available: 100LL
24HR CARD LOCK
Parking: tiedowns
Bottled oxygen: NONE
Bulk oxygen: NONE

Runway Information

Runway 16/34

Dimensions: 4125 x 100 ft. / 1257 x 30 m
Surface: asphalt, in good condition
Weight bearing capacity: 
Single wheel: 38.0
Double wheel: 53.0
Runway edge lights: medium intensity
RUNWAY 16  RUNWAY 34
Latitude: 39-31.297078N39-30.617973N
Longitude: 122-13.196330W122-13.168878W
Elevation: 141.2 ft.136.2 ft.
Traffic pattern: rightleft
Runway heading: 164 magnetic, 178 true344 magnetic, 358 true
Markings: basic, in good conditionnonprecision, in good condition
Visual slope indicator: 4-box VASI on left (3.00 degrees glide path)
Runway end identifier lights: no
Touchdown point: yes, no lightsyes, no lights
Obstructions: 15 ft. road, 550 ft. from runway, 23:1 slope to clearnone

Runway 13/31

Dimensions: 3788 x 60 ft. / 1155 x 18 m
Surface: asphalt, in fair condition
Weight bearing capacity: 
Single wheel: 12.0
RUNWAY 13  RUNWAY 31
Latitude: 39-31.187660N39-30.676538N
Longitude: 122-13.108402W122-12.646507W
Elevation: 137.7 ft.131.3 ft.
Traffic pattern: rightleft
Runway heading: 131 magnetic, 145 true311 magnetic, 325 true
Displaced threshold: no243 ft.
Markings: basic, in good conditionbasic, in good condition
Runway end identifier lights: nono
Touchdown point: yes, no lightsyes, no lights
Obstructions: 50 ft. trees, 1910 ft. from runway, 100 ft. right of centerline, 34:1 slope to clearnone

Helipad H1

Dimensions: 60 x 60 ft. / 18 x 18 m
Surface: concrete, in good condition
Latitude: 39-31.350833N
Longitude: 122-13.140333W
Elevation: 139.0 ft.
Traffic pattern: leftleft
Markings: basic, in good condition

Airport Ownership and Management from official FAA records

Ownership: Publicly-owned
Owner: COUNTY OF GLENN
525 W SYCAMORE ST., STE B1
WILLOWS, CA 95988
Phone 530-934-6400
Manager: MOHAMMAD QURESHI
PO BOX 1070
WILLOWS, CA 95988
Phone 530-934-6530
COUNTY PUBLIC WORKS DEPUTY DIRECTOR.

Airport Operational Statistics

Aircraft based on the field: 42
Single engine airplanes: 39
Jet airplanes: 1
Helicopters: 2
    
Aircraft operations: avg 81/day *
75% local general aviation
25% transient general aviation
* for 12-month period ending 31 December 2017

Additional Remarks

A58-H1 +8 FT BUSHES 25 FT NE OF HELIPAD.
FOR CD CTC OAKLAND ARTCC AT 510-745-3380.

Instrument Procedures

NOTE: All procedures below are presented as PDF files. If you need a reader for these files, you should download the free Adobe Reader.

NOT FOR NAVIGATION. Please procure official charts for flight.
FAA instrument procedures published for use from 10 October 2019 at 0901Z to 7 November 2019 at 0900Z.

 
IAPs - Instrument Approach Procedures
RNAV (GPS) RWY 34 **CHANGED**   download (184KB)
VOR RWY 34 **CHANGED**   download (159KB)
VOR RWY 34 **CHANGED**   download (159KB)
NOTE: Special Take-Off Minimums/Departure Procedures apply   download (227KB)

Other nearby airports with instrument procedures:

O37 - Haigh Field Airport (13 nm N)
O08 - Colusa County Airport (23 nm SE)
KCIC - Chico Municipal Airport (24 nm NE)
KOVE - Oroville Municipal Airport (28 nm E)
KRBL - Red Bluff Municipal Airport (38 nm N)
 
Loc | Ops | Rwys | IFR | FBO | Links
Com | Nav | Svcs | Stats | Notes
Area around KWLW (Willows-Glenn County Airport)
 
Road maps at: MapQuest Bing Google
 
Aerial photo
WARNING: Photo may not be current or correct
Aerial photo of KWLW (Willows-Glenn County Airport)
Photo Jassen Photography
Photo taken 06-Nov-2015
looking west.

Do you have a better or more recent aerial photo of Willows-Glenn County Airport that you would like to share? If so, please send us your photo.

 
Sectional chart

 
Airport distance calculator
Flying to Willows-Glenn County Airport? Find the distance to fly.

From to KWLW

Sunrise and sunset
Times for 23-Oct-2019
 Local
(UTC-7)
 Zulu
(UTC)
Morning civil twilight07:0114:01
Sunrise07:2814:28
Sunset18:1801:18
Evening civil twilight18:4501:45

Current date and time
Zulu (UTC)  24-Oct-2019 03:07:07
Local (UTC-7)  23-Oct-2019 20:07:07
 
METAR
KCIC 
24nm NE 
240150Z VRB05KT 10SM SKC 27/M08 A2999
KOVE 
28nm E 
240253Z AUTO VRB05KT 10SM CLR 26/M08 A2998 RMK AO2 SLP153 T02561083 53011
KO54 
35nm N 
240255Z AUTO 00000KT 10SM CLR 14/M02 A3019 RMK AO1
KRBL 
38nm N 
240254Z AUTO 35011KT 10SM -RA CLR 26/M07 A3005 RMK AO2 SLP171 P0000 60000 T02561067 53012 $
KMYV 
39nm SE 
240253Z AUTO 33007KT 10SM CLR 21/00 A2993 RMK AO2 SLP138 T02060000 53009
KBAB 
43nm SE 
240258Z AUTO 04013KT 10SM CLR 28/M10 A2991 RMK AO2 SLP131 T02751097 52009 $
TAF
KRBL 
38nm N 
231727Z 2318/2418 35026G34KT P6SM SKC FM240300 35018G24KT P6SM SKC
KBAB 
43nm SE 
231902Z 2319/2501 34012KT 9999 SKC QNH2990INS TEMPO 2320/2324 34015G25KT BECMG 2405/2406 VRB06KT 9999 SKC QNH2997INS BECMG 2417/2418 33009KT 9999 SKC QNH3001INS TX35/2323Z TN15/2413Z
NOTAMs
Click for the latest NOTAMs
NOTAMs are issued by the DoD/FAA and will open in a separate window not controlled by AirNav.

 

 
 

FBO, Fuel Providers, and Aircraft Ground Support

  
 Business Name 
 
 Contact 
 
 Services / Description 
 
Fuel Prices
 
Comments
  
Glenn County Airport 530-934-6530
no information available

If you are affiliated with Glenn County Airport and would like to show here your services, contact info, web link, logo, and more, click here
100LL
SS $4.65 
 Updated 09-Oct-2019
 
   4 read write
SS=Self service
Update Fuel Prices
 

Where to Eat: Catering, Restaurants, Food shops

  
 Business Name 
 
 Contact 
 
 Services / Description 
 
Distance
 
Comments
  
Nancy's Airport Cafe 530-934-7211
no information available

If you are affiliated with Nancy's Airport Cafe and would like to show here your services, contact info, web link, logo, and more, click here
on airport  
   3 read write
 

Would you like to see your business listed on this page?

 If your business provides an interesting product or service to pilots, flight crews, aircraft, or users of the Willows-Glenn County Airport, you should consider listing it here.  To start the listing process, click on the button below
 
Add a business
 

Other Pages about Willows-Glenn County Airport

County of Glenn Airports
 
Update a link
 
Copyright © AirNav, LLC. All rights reserved. Privacy Policy  Contact